Weather History for Pittsfield, IL

Change the Weather History Date:

Monday, December 10, 2012

  Actual Average (KUIN) Record (KUIN)
Temperature  
Mean Temperature 28 °F 31 °F  
Max Temperature 31 °F 39 °F 63 °F (1979)
Min Temperature 24 °F 23 °F -7 °F (1917)
Degree Days  
Heating Degree Days 38 34  
Month to date heating degree days 322  
Since 1 July heating degree days 1422  
Cooling Degree Days 0 0  
Month to date cooling degree days 0  
Year to date cooling degree days 1094  
Moisture  
Dew Point 22 °F    
Average Humidity 76    
Maximum Humidity 83    
Minimum Humidity 70    
Precipitation  
Precipitation 0.00 in 0.08 in 1.30 in (2003)
Month to date precipitation 0.85  
Year to date precipitation 35.93  
Sea Level Pressure  
Sea Level Pressure 29.96 in    
Wind  
Wind Speed 11 mph (West)    
Max Wind Speed 17 mph    
Max Gust Speed 25 mph    
Visibility 10 miles    
Events      
T = Trace of Precipitation, MM = Missing Value Source: NWS Daily Summary

Daily Weather History Graph

Daily Weather History Graph

Search for Another Location

Airport:

Trip Planner

Search our weather history database for the weather conditions in past years. The results will help you decide how hot, cold, wet, or windy it might be!

Date:

Astronomy

Dec. 10, 2012 Rise Set
Actual Time 7:13 AM CST 4:38 PM CST
Civil Twilight 6:43 AM CST 5:09 PM CST
Nautical Twilight 6:09 AM CST 5:42 PM CST
Astronomical Twilight 5:36 AM CST 6:15 PM CST
Moon 3:57 AM CST (12/10) 2:28 PM CST (12/10)
Length of Visible Light 10h 26m
Length of Day
9h 25m
Waning Crescent, 10% of the Moon is Illuminated
Dec 10
Waning Crescent
Dec 13
New
Dec 19
First Quarter
Dec 28
Full
Jan 4
Last Quarter

Hourly Weather History & Observations

Time (CST) Temp. Windchill Dew Point Humidity Pressure Visibility Wind Dir Wind Speed Gust Speed Precip Events Conditions
12:15 AM 30.7 °F 19.2 °F 25.0 °F 79% 29.91 in 10.0 mi West 17.3 mph 23.0 mph N/A   Overcast
12:35 AM 29.3 °F 18.2 °F 23.0 °F 77% 29.91 in 10.0 mi WNW 15.0 mph 25.3 mph N/A   Overcast
12:55 AM 28.4 °F 18.5 °F 22.5 °F 78% 29.91 in 10.0 mi WNW 11.5 mph 18.4 mph N/A   Overcast
1:15 AM 28.2 °F 17.2 °F 22.1 °F 78% 29.90 in 10.0 mi West 13.8 mph 21.9 mph N/A   Overcast
1:35 AM 28.0 °F 19.3 °F 22.1 °F 78% 29.91 in 10.0 mi WNW 9.2 mph 18.4 mph N/A   Overcast
1:55 AM 28.0 °F 19.3 °F 22.3 °F 79% 29.91 in 10.0 mi West 9.2 mph 18.4 mph N/A   Overcast
2:15 AM 27.9 °F 18.4 °F 22.1 °F 79% 29.92 in 10.0 mi West 10.4 mph 19.6 mph N/A   Overcast
2:35 AM 26.6 °F 16.2 °F 21.2 °F 80% 29.92 in 10.0 mi WNW 11.5 mph 18.4 mph N/A   Overcast
2:55 AM 27.3 °F 16.6 °F 21.2 °F 78% 29.91 in 10.0 mi WNW 12.7 mph 19.6 mph N/A   Overcast
3:15 AM 27.3 °F 16.6 °F 21.2 °F 78% 29.90 in 10.0 mi West 12.7 mph - N/A   Overcast
3:35 AM 26.8 °F 15.4 °F 20.5 °F 77% 29.90 in 10.0 mi WNW 13.8 mph 19.6 mph N/A   Overcast
3:55 AM 26.4 °F 15.0 °F 20.3 °F 78% 29.90 in 10.0 mi West 13.8 mph 18.4 mph N/A   Overcast
4:15 AM 26.4 °F 15.0 °F 20.8 °F 79% 29.90 in 10.0 mi West 13.8 mph 18.4 mph N/A   Overcast
4:35 AM 26.2 °F 15.8 °F 20.3 °F 78% 29.90 in 10.0 mi WNW 11.5 mph 17.3 mph N/A   Overcast
4:55 AM 26.1 °F 14.0 °F 20.1 °F 78% 29.90 in 10.0 mi West 15.0 mph 20.7 mph N/A   Overcast
5:15 AM 26.1 °F 13.6 °F 20.3 °F 79% 29.90 in 10.0 mi WNW 16.1 mph 20.7 mph N/A   Overcast
5:35 AM 26.6 °F 15.7 °F 19.4 °F 74% 29.89 in 10.0 mi West 12.7 mph 20.7 mph N/A   Overcast
5:55 AM 25.7 °F 15.7 °F 20.1 °F 79% 29.89 in 10.0 mi WNW 10.4 mph 21.9 mph N/A   Overcast
6:15 AM 25.7 °F 14.6 °F 19.9 °F 79% 29.91 in 10.0 mi WNW 12.7 mph 21.9 mph N/A   Overcast
6:35 AM 25.5 °F 13.8 °F 19.8 °F 79% 29.92 in 10.0 mi West 13.8 mph 19.6 mph N/A   Overcast
6:55 AM 25.5 °F 13.3 °F 19.9 °F 79% 29.93 in 10.0 mi West 15.0 mph 21.9 mph N/A   Overcast
7:15 AM 25.7 °F 13.5 °F 20.1 °F 79% 29.94 in 10.0 mi West 15.0 mph 19.6 mph N/A   Overcast
7:35 AM 25.3 °F 15.3 °F 20.1 °F 81% 29.96 in 10.0 mi West 10.4 mph 18.4 mph N/A   Overcast
7:55 AM 25.2 °F 13.9 °F 19.9 °F 81% 29.95 in 10.0 mi West 12.7 mph 20.7 mph N/A   Overcast
8:15 AM 25.0 °F 14.2 °F 20.3 °F 82% 29.96 in 10.0 mi West 11.5 mph 18.4 mph N/A   Overcast
8:35 AM 24.8 °F 13.4 °F 20.3 °F 83% 29.96 in 10.0 mi West 12.7 mph 19.6 mph N/A   Overcast
8:55 AM 25.2 °F 12.9 °F 20.1 °F 81% 29.97 in 10.0 mi WNW 15.0 mph 23.0 mph N/A   Overcast
9:15 AM 25.2 °F 13.9 °F 20.1 °F 81% 29.97 in 10.0 mi West 12.7 mph 17.3 mph N/A   Overcast
9:35 AM 25.2 °F 13.3 °F 19.8 °F 80% 29.97 in 10.0 mi West 13.8 mph 19.6 mph N/A   Overcast
9:55 AM 25.7 °F 14.6 °F 19.9 °F 79% 29.97 in 10.0 mi West 12.7 mph - N/A   Overcast
10:15 AM 25.9 °F 14.8 °F 19.8 °F 78% 29.98 in 10.0 mi WNW 12.7 mph 18.4 mph N/A   Overcast
10:35 AM 26.2 °F 15.2 °F 19.8 °F 76% 29.98 in 10.0 mi West 12.7 mph 19.6 mph N/A   Overcast
10:55 AM 26.6 °F 14.7 °F 20.1 °F 77% 29.97 in 10.0 mi West 15.0 mph 18.4 mph N/A   Overcast
11:15 AM 26.6 °F 15.7 °F 20.3 °F 77% 29.97 in 10.0 mi West 12.7 mph 17.3 mph N/A   Overcast
11:35 AM 27.3 °F 17.7 °F 20.5 °F 75% 29.96 in 10.0 mi West 10.4 mph - N/A   Overcast
11:55 AM 27.9 °F 18.4 °F 21.0 °F 75% 29.95 in 10.0 mi West 10.4 mph - N/A   Overcast
12:15 PM 28.4 °F 19.7 °F 21.4 °F 75% 29.94 in 10.0 mi WNW 9.2 mph - N/A   Overcast
12:35 PM 28.8 °F 19.5 °F 21.6 °F 74% 29.94 in 10.0 mi West 10.4 mph 16.1 mph N/A   Overcast
12:55 PM 28.8 °F 19.0 °F 21.2 °F 73% 29.93 in 10.0 mi West 11.5 mph - N/A   Overcast
1:15 PM 29.7 °F 21.3 °F 21.9 °F 73% 29.93 in 10.0 mi West 9.2 mph - N/A   Overcast
1:35 PM 29.7 °F 20.7 °F 21.7 °F 72% 29.93 in 10.0 mi WNW 10.4 mph - N/A   Overcast
1:55 PM 30.2 °F 21.3 °F 22.1 °F 72% 29.93 in 10.0 mi West 10.4 mph - N/A   Overcast
2:15 PM 30.4 °F 20.0 °F 22.5 °F 72% 29.94 in 10.0 mi West 13.8 mph - N/A   Overcast
2:35 PM 30.6 °F 23.1 °F 22.5 °F 72% 29.95 in 10.0 mi West 8.1 mph 17.3 mph N/A   Overcast
2:55 PM 31.1 °F 23.1 °F 22.6 °F 71% 29.95 in 10.0 mi West 9.2 mph - N/A   Overcast
3:15 PM 31.1 °F 24.5 °F 22.8 °F 71% 29.95 in 10.0 mi WNW 6.9 mph - N/A   Overcast
3:35 PM 31.1 °F 22.4 °F 22.8 °F 71% 29.96 in 10.0 mi West 10.4 mph - N/A   Overcast
3:55 PM 31.3 °F 22.7 °F 22.5 °F 70% 29.96 in 10.0 mi WNW 10.4 mph - N/A   Overcast
4:15 PM 31.1 °F 23.7 °F 22.5 °F 70% 29.96 in 10.0 mi WNW 8.1 mph - N/A   Overcast
4:35 PM 31.5 °F 25.8 °F 23.0 °F 71% 29.97 in 10.0 mi WNW 5.8 mph - N/A   Overcast
4:55 PM 31.6 °F 27.0 °F 22.8 °F 70% 29.97 in 10.0 mi WNW 4.6 mph - N/A   Overcast
5:15 PM 31.6 °F 26.0 °F 23.4 °F 71% 29.98 in 10.0 mi NW 5.8 mph - N/A   Overcast
5:35 PM 31.6 °F 28.3 °F 23.9 °F 73% 30.00 in 10.0 mi WNW 3.5 mph - N/A   Overcast
5:55 PM 31.6 °F 27.0 °F 23.5 °F 72% 30.00 in 10.0 mi WNW 4.6 mph - N/A   Overcast
6:15 PM 31.6 °F 28.3 °F 23.5 °F 72% 30.00 in 10.0 mi NW 3.5 mph - N/A   Overcast
6:35 PM 31.5 °F - 23.7 °F 73% 30.01 in 10.0 mi Calm Calm - N/A   Overcast
6:55 PM 31.3 °F - 23.7 °F 74% 30.02 in 10.0 mi Calm Calm - N/A   Overcast
7:15 PM 31.1 °F - 23.9 °F 75% 30.02 in 10.0 mi Calm Calm - N/A   Overcast
7:35 PM 30.9 °F - 24.8 °F 78% 30.02 in 10.0 mi Calm Calm - N/A   Overcast
7:55 PM 30.7 °F - 24.1 °F 76% 30.03 in 10.0 mi Calm Calm - N/A   Overcast
8:15 PM 30.9 °F - 23.0 °F 72% 30.03 in 10.0 mi Calm Calm - N/A   Overcast
8:35 PM 31.1 °F - 22.6 °F 71% 30.03 in 10.0 mi Calm Calm - N/A   Overcast
8:55 PM 30.7 °F 26.0 °F 22.1 °F 70% 30.03 in 10.0 mi West 4.6 mph - N/A   Overcast
9:15 PM 29.5 °F 23.4 °F 22.1 °F 74% 30.03 in 10.0 mi West 5.8 mph - N/A   Mostly Cloudy
9:35 PM 28.9 °F 23.9 °F 21.9 °F 75% 30.04 in 10.0 mi WSW 4.6 mph - N/A   Scattered Clouds
9:55 PM 28.2 °F 22.0 °F 21.6 °F 76% 30.04 in 10.0 mi WSW 5.8 mph - N/A   Scattered Clouds
10:15 PM 27.5 °F 20.2 °F 21.2 °F 77% 30.04 in 10.0 mi WSW 6.9 mph - N/A   Clear
10:35 PM 27.0 °F 20.5 °F 21.0 °F 78% 30.05 in 10.0 mi WSW 5.8 mph - N/A   Clear
10:55 PM 26.4 °F 19.8 °F 20.8 °F 79% 30.05 in 10.0 mi WSW 5.8 mph - N/A   Clear
11:15 PM 26.2 °F 18.6 °F 20.8 °F 80% 30.05 in 10.0 mi WSW 6.9 mph - N/A   Scattered Clouds
11:35 PM 25.7 °F 21.5 °F 20.3 °F 80% 30.04 in 10.0 mi WSW 3.5 mph - N/A   Scattered Clouds
11:55 PM 24.8 °F 20.5 °F 20.1 °F 82% 30.06 in 10.0 mi West 3.5 mph - N/A   Clear